Location: Antichan
(42.9728°N, 0.6667°E)
Time: 17:28:42
(UTC+00:00)

SL-16 R/B - Pass Details

Date: 15 August 2020
Orbit: 843 x 845 km, 71.0° (Epoch: 18 September)

Event Time Altitude Azimuth Distance (km) Brightness Sun altitude
Rises 21:38:57 0° 329° (NNW) 3,414 6.7 -24.6°
Reaches altitude 10° 21:41:29 10° 324° (NW) 2,475 5.7 -24.9°
Maximum altitude 21:46:52 46° 253° (WSW) 1,131 2.9 -25.5°
Enters shadow 21:48:14 38° 216° (SW) 1,263 2.9 -25.6°
